TimeCST,TemperatureF,Dew PointF,Humidity,Sea Level PressureIn,VisibilityMPH,Wind Direction,Wind SpeedMPH,Gust SpeedMPH,PrecipitationIn,Events,Conditions,WindDirDegrees,DateUTC
12:15 AM,5.7,2.1,85,30.01,10.0,SE,10.4,-,N/A,,Overcast,130,2013-12-16 06:15:00
12:34 AM,5.9,2.3,85,30.00,10.0,SE,9.2,-,N/A,,Overcast,140,2013-12-16 06:34:00
12:55 AM,5.9,2.3,85,30.00,10.0,SE,9.2,-,N/A,,Overcast,130,2013-12-16 06:55:00
1:15 AM,5.9,2.3,85,30.02,10.0,ESE,4.6,-,N/A,,Overcast,120,2013-12-16 07:15:00
1:34 AM,5.9,2.5,86,30.00,10.0,SE,9.2,-,N/A,,Overcast,140,2013-12-16 07:34:00
1:55 AM,6.4,3.2,87,29.99,10.0,SE,10.4,-,N/A,,Overcast,140,2013-12-16 07:55:00
2:15 AM,7.2,5.0,91,29.98,5.0,SSE,11.5,-,N/A,Snow,Light Snow,160,2013-12-16 08:15:00
2:35 AM,7.3,5.5,92,29.98,7.0,SSE,9.2,-,N/A,Snow,Light Snow,160,2013-12-16 08:35:00
2:55 AM,7.7,5.9,92,29.98,7.0,SE,8.1,-,N/A,Snow,Light Snow,140,2013-12-16 08:55:00
3:15 AM,8.1,6.3,92,29.98,7.0,SSE,6.9,-,N/A,Snow,Light Snow,150,2013-12-16 09:15:00
3:34 AM,8.4,6.6,92,29.97,7.0,SSE,5.8,-,N/A,,Overcast,150,2013-12-16 09:34:00
3:55 AM,8.6,6.8,92,29.93,7.0,SSE,10.4,-,N/A,,Overcast,150,2013-12-16 09:55:00
4:14 AM,9.0,7.2,92,29.94,7.0,SSE,4.6,-,N/A,,Overcast,160,2013-12-16 10:14:00
4:35 AM,9.5,7.7,92,29.95,7.0,Calm,Calm,-,N/A,,Overcast,0,2013-12-16 10:35:00
4:55 AM,9.5,7.7,92,29.94,5.0,ESE,3.5,-,N/A,Snow,Light Snow,120,2013-12-16 10:55:00
5:15 AM,9.9,7.7,91,29.92,5.0,SE,5.8,-,N/A,Snow,Light Snow,130,2013-12-16 11:15:00
5:35 AM,10.0,8.1,92,29.92,7.0,SSE,6.9,-,N/A,,Scattered Clouds,150,2013-12-16 11:35:00
5:54 AM,10.4,8.6,92,29.91,10.0,SE,8.1,-,N/A,,Mostly Cloudy,140,2013-12-16 11:54:00
6:15 AM,10.9,9.0,92,29.91,10.0,SE,4.6,-,N/A,,Mostly Cloudy,140,2013-12-16 12:15:00
6:35 AM,11.3,8.8,90,29.91,10.0,SSE,3.5,-,N/A,,Scattered Clouds,160,2013-12-16 12:35:00
6:55 AM,11.3,8.4,88,29.89,10.0,South,4.6,-,N/A,,Scattered Clouds,170,2013-12-16 12:55:00
7:14 AM,12.9,9.1,85,29.89,10.0,South,4.6,-,N/A,,Mostly Cloudy,170,2013-12-16 13:14:00
7:35 AM,13.1,9.1,84,29.90,10.0,SSW,4.6,-,N/A,,Overcast,210,2013-12-16 13:35:00
7:55 AM,13.8,9.5,83,29.91,10.0,SSW,4.6,-,N/A,,Overcast,210,2013-12-16 13:55:00
8:15 AM,14.0,9.9,84,29.91,10.0,SW,4.6,-,N/A,,Mostly Cloudy,220,2013-12-16 14:15:00
8:35 AM,14.4,10.2,84,29.92,10.0,WSW,10.4,-,N/A,,Mostly Cloudy,250,2013-12-16 14:35:00
8:55 AM,14.7,10.4,83,29.92,10.0,WSW,5.8,-,N/A,,Overcast,240,2013-12-16 14:55:00
9:15 AM,14.7,10.4,83,29.92,10.0,WSW,6.9,-,N/A,,Overcast,240,2013-12-16 15:15:00
9:35 AM,14.9,10.8,84,29.93,10.0,West,6.9,-,N/A,,Overcast,270,2013-12-16 15:35:00
9:55 AM,16.3,12.2,84,29.94,10.0,West,9.2,-,N/A,,Overcast,270,2013-12-16 15:55:00
10:15 AM,16.3,12.6,85,29.94,7.0,West,8.1,-,N/A,,Overcast,260,2013-12-16 16:15:00
10:35 AM,18.0,13.3,82,29.95,10.0,West,11.5,-,N/A,,Mostly Cloudy,260,2013-12-16 16:35:00
10:55 AM,21.4,16.9,83,29.95,10.0,West,8.1,-,N/A,,Overcast,270,2013-12-16 16:55:00
11:14 AM,23.7,19.2,83,29.94,10.0,West,5.8,-,N/A,,Overcast,280,2013-12-16 17:14:00
11:35 AM,26.4,21.2,81,29.94,10.0,WNW,15.0,18.4,N/A,,Scattered Clouds,300,2013-12-16 17:35:00
11:55 AM,25.5,20.1,80,29.94,10.0,West,12.7,-,N/A,,Clear,280,2013-12-16 17:55:00
12:15 PM,25.7,20.1,79,29.94,10.0,WNW,12.7,-,N/A,,Clear,290,2013-12-16 18:15:00
12:34 PM,28.9,22.6,77,29.94,10.0,WNW,13.8,-,N/A,,Clear,300,2013-12-16 18:34:00
12:55 PM,30.2,23.5,76,29.94,10.0,WNW,17.3,23.0,N/A,,Clear,300,2013-12-16 18:55:00
1:15 PM,30.6,23.0,74,29.93,2.5,WNW,18.4,21.9,N/A,Snow,Light Snow,300,2013-12-16 19:15:00
1:35 PM,32.0,23.5,71,29.94,2.5,WNW,19.6,25.3,N/A,,Haze,300,2013-12-16 19:35:00
1:55 PM,32.5,23.7,70,29.94,7.0,WNW,19.6,26.5,N/A,,Clear,300,2013-12-16 19:55:00
2:15 PM,32.2,23.7,71,29.95,10.0,WNW,18.4,-,N/A,,Clear,300,2013-12-16 20:15:00
2:35 PM,32.4,23.9,71,29.94,10.0,WNW,13.8,-,N/A,,Clear,290,2013-12-16 20:35:00
2:55 PM,32.4,23.9,71,29.95,10.0,WNW,16.1,-,N/A,,Clear,290,2013-12-16 20:55:00
3:14 PM,32.9,24.1,70,29.96,10.0,WNW,16.1,-,N/A,,Clear,290,2013-12-16 21:14:00
3:35 PM,32.5,24.3,72,29.97,10.0,WNW,15.0,-,N/A,,Clear,290,2013-12-16 21:35:00
3:55 PM,32.5,23.9,70,29.97,10.0,West,10.4,13.8,N/A,,Clear,270,2013-12-16 21:55:00
4:15 PM,32.0,23.7,71,29.98,10.0,West,12.7,-,N/A,,Clear,270,2013-12-16 22:15:00
4:35 PM,32.0,23.9,72,29.98,10.0,West,10.4,-,N/A,,Clear,280,2013-12-16 22:35:00
4:55 PM,32.0,24.8,75,29.98,10.0,West,15.0,-,N/A,,Clear,270,2013-12-16 22:55:00
5:15 PM,32.0,24.8,75,29.98,10.0,West,15.0,21.9,N/A,,Clear,270,2013-12-16 23:15:00
5:35 PM,31.8,24.8,75,29.98,10.0,West,15.0,-,N/A,,Clear,260,2013-12-16 23:35:00
5:55 PM,32.0,25.7,78,29.98,10.0,West,16.1,23.0,N/A,,Clear,260,2013-12-16 23:55:00
6:15 PM,32.5,25.7,76,29.98,10.0,West,17.3,21.9,N/A,,Clear,260,2013-12-17 00:15:00
6:34 PM,32.9,25.9,75,29.97,10.0,West,17.3,-,N/A,,Scattered Clouds,260,2013-12-17 00:34:00
6:55 PM,32.4,25.7,76,29.98,10.0,West,16.1,-,N/A,,Scattered Clouds,260,2013-12-17 00:55:00
7:14 PM,32.9,25.5,74,29.98,10.0,West,17.3,23.0,N/A,,Scattered Clouds,260,2013-12-17 01:14:00
7:35 PM,32.9,25.5,74,29.98,10.0,West,18.4,24.2,N/A,,Clear,260,2013-12-17 01:35:00
7:55 PM,32.9,25.7,75,29.98,10.0,West,19.6,24.2,N/A,,Clear,260,2013-12-17 01:55:00
8:15 PM,32.0,25.7,78,29.98,10.0,West,18.4,25.3,N/A,,Clear,270,2013-12-17 02:15:00
8:35 PM,32.0,25.3,76,29.98,10.0,West,18.4,-,N/A,,Clear,260,2013-12-17 02:35:00
8:55 PM,31.5,25.3,78,29.98,10.0,West,15.0,-,N/A,,Clear,260,2013-12-17 02:55:00
9:14 PM,30.7,24.6,78,29.97,10.0,WSW,15.0,18.4,N/A,,Clear,250,2013-12-17 03:14:00
9:35 PM,30.2,24.4,79,29.95,10.0,SW,9.2,-,N/A,,Clear,230,2013-12-17 03:35:00
9:55 PM,31.8,25.7,78,29.98,10.0,NW,11.5,17.3,N/A,,Scattered Clouds,320,2013-12-17 03:55:00
10:14 PM,31.5,25.7,79,29.97,10.0,West,12.7,17.3,N/A,,Scattered Clouds,270,2013-12-17 04:14:00
10:35 PM,32.4,26.4,79,29.98,10.0,West,15.0,-,N/A,,Scattered Clouds,270,2013-12-17 04:35:00
10:55 PM,32.9,26.6,78,29.98,10.0,West,18.4,21.9,N/A,,Overcast,270,2013-12-17 04:55:00
11:15 PM,33.4,26.6,76,29.99,10.0,WNW,12.7,-,N/A,,Overcast,290,2013-12-17 05:15:00
11:35 PM,34.0,27.1,76,29.98,10.0,West,19.6,-,N/A,,Overcast,270,2013-12-17 05:35:00
11:55 PM,34.7,27.3,74,29.99,10.0,West,20.7,29.9,N/A,,Mostly Cloudy,280,2013-12-17 05:55:00